Regional Weather Roundup
Issued by NWS

Home | Current Version | Previous Version | Text Only | Print | Product List | Glossary On
Versions: 1 2 3 4 5 6 7 8 9 10 11 12 13 14 15 16 17 18 19 20 21 22 23 24 25 26 27 28 29 30 31 32 33 34 35 36 37 38 39 40 41 42 43 44 45 46 47 48 49 50
000
ASUS43 KMPX 180010
RWRMN
WEATHER ROUNDUP FOR MINNESOTA
NATIONAL WEATHER SERVICE TWIN CITIES/CHANHASSEN MN
600 PM CST SUN DEC 17 2017


NOTE: "FAIR" INDICATES FEW OR NO CLOUDS BELOW 12,000 FEET WITH NO
SIGNIFICANT WEATHER AND/OR OBSTRUCTIONS TO VISIBILITY. N/A MEANS
CURRENT SKY AND/OR WEATHER CONDITIONS ARE NOT AVAILABLE.

MNZ060>063-068>070-180100-
   Twin Cities Metro

CITY           SKY/WX    TMP DP  RH WIND       PRES   REMARKS
TWIN CITIES    CLOUDY    28  24  85 S5        29.98R FOG     WCI  23
6HR MIN TEMP:  27; 6HR MAX TEMP:  28;

ST PAUL        CLOUDY    27  24  89 S5        29.99R FOG     WCI  22
CRYSTAL        CLOUDY    27  20  75 CALM      29.97R
BLAINE         CLOUDY    28  27  93 CALM      29.97R FOG
LAKEVILLE      CLOUDY    25  25 100 SE3       29.97S FOG
EDEN PRAIRIE   CLOUDY    27  23  85 S3        29.97R FOG
6HR MIN TEMP:  27; 6HR MAX TEMP:  29;

SOUTH ST PAUL  MOCLDY    28  25  88 CALM      29.98S FOG
LAKE ELMO      CLOUDY    28  27  93 S6        29.98S WCI  22
$$
MNZ001>005-007-008-013>017-022>024-027-028-180100-
   Northwest Minnesota

CITY           SKY/WX    TMP DP  RH WIND       PRES   REMARKS
BEMIDJI        CLEAR     23  22  96 S5        29.87S WCI  16
HALLOCK        CLEAR     18  16  93 SE14      29.80F WCI   4
ROSEAU         CLEAR     19  14  79 S12       29.82F WCI   7
WARROAD        CLEAR     19  16  86 S6        29.82F WCI  11
THIEF RVR FALL CLOUDY    23  23 100 S8        29.86F FOG     WCI  14
CROOKSTON      FOG       25  25 100 S12       29.87F VSB 1/2 WCI  14
FOSSTON        CLOUDY    25  25 100 S9        29.87F FOG     WCI  15
DETROIT LAKES  CLOUDY    28  28 100 S9        29.90S FOG     WCI  20
MOORHEAD       CLOUDY    30  28  93 S14       29.89F FOG     WCI  20
PARK RAPIDS    CLOUDY    26  23  88 S8        29.89S WCI  18
MAHNOMEN       FOG       26  25  99 S10       29.87F VSB 3/4 WCI  16
$$
MNZ006-009>011-018-025>026-180100-
   North Central Minnesota

CITY           SKY/WX    TMP DP  RH WIND       PRES   REMARKS
BAUDETTE       CLEAR     22  18  85 SW6       29.83F WCI  14
FLAG ISLAND    CLEAR      9   7  92 S7        29.80F WCI  -3
INTL FALLS     CLEAR     22  18  85 CALM      29.85S
6HR MIN TEMP:  21; 6HR MAX TEMP:  32;

WASKISH        CLEAR     21  19  93 CALM      29.87S
BIG FORK       CLOUDY    28  25  86 S6        29.88S WCI  22
LONGVILLE      CLOUDY    27  25  93 S6        29.91S FOG     WCI  20
GRAND RAPIDS   CLOUDY    26  24  92 S6        29.92F WCI  19
CRANE LAKE     CLOUDY    25  23  93 CALM      29.90S
ORR            CLOUDY    25  21  86 S5        29.86S WCI  19
COOK           CLOUDY    25  23  93 SW3       29.89F
WALKER         FAIR      25  24  96 SE3       29.89S
$$
MNZ012-019>021-037-180100-
   Northeast Minnesota

CITY           SKY/WX    TMP DP  RH WIND       PRES   REMARKS
DULUTH         CLOUDY    24  21  88 SW6       29.91S WCI  17
6HR MIN TEMP:  22; 6HR MAX TEMP:  24;

ELY            CLOUDY    21  21 100 SW6       29.89F WCI  14
HIBBING        CLOUDY    24  23  96 S3        29.90F
EVELETH        CLOUDY    23  21  91 SW5       29.91F FOG     WCI  17
DULUTH HARBOR  CLOUDY    27  21  80 SW5       29.97S WCI  21
TWO HARBORS    CLOUDY    28  23  80 SW3       29.91S
SILVER BAY     CLOUDY    27  25  93 W3        29.90F
GRAND MARAIS     N/A     28  23  81 CALM      29.93F
G MARAIS ARPRT CLOUDY    21  18  86 CALM      29.86F FOG
$$
MNZ029>031-032-039>041-046>048-054>057-064-180100-
   West Central Minnesota

CITY           SKY/WX    TMP DP  RH WIND       PRES   REMARKS
FERGUS FALLS   CLOUDY    28  28 100 S6        29.94F FOG     WCI  22
WHEATON        CLOUDY    30  28  93 SE7       29.94F FOG     WCI  23
MORRIS         CLOUDY    28  27  93 SE7       29.93S FOG     WCI  21
ALEXANDRIA     CLOUDY    26  25  96 S3        29.93S
ELBOW LAKE     FAIR      28  28 100 S6        29.92F FOG     WCI  21
WADENA         CLOUDY    27  27 100 SW7       29.91F FOG     WCI  19
GLENWOOD       CLOUDY    27  25  93 S7        29.94S FOG     WCI  19
APPLETON       CLOUDY    30  27  86 SE3       29.94F
BENSON         CLOUDY    28  25  86 S3        29.96S
ORTONVILLE     CLOUDY    30  27  86 SE5       29.93S WCI  25
MADISON        CLOUDY    34  28  80 SE5       29.94S WCI  30
WILLMAR        FAIR      28  27  93 CALM      29.96S FOG
$$
MNZ033>034-036-042>043-049>051-058-059-180100-
   Central Minnesota

CITY           SKY/WX    TMP DP  RH WIND       PRES   REMARKS
ST CLOUD       PTCLDY    24  20  84 CALM      29.95F
6HR MIN TEMP:  24; 6HR MAX TEMP:  27;

SAUK CENTRE    CLOUDY    26  24  91 SE3       29.94S
PAYNESVILLE    CLOUDY    28  25  89 CALM      29.95S
AITKIN         CLOUDY    25  21  86 CALM      29.92F
PINE RIVER     CLOUDY    25  23  93 S3        29.95S
BRAINERD       CLOUDY    27  22  81 CALM      29.94S
STAPLES        CLOUDY    25  25 100 SW5       29.93S FOG     WCI  19
LONG PRAIRIE   MOCLDY    27  25  93 E3        29.94S FOG
LITTLE FALLS   CLOUDY    23  18  80 CALM      29.96R
LITCHFIELD     PTCLDY    28  25  86 CALM      29.95F
BUFFALO        CLOUDY    26  21  83 CALM      29.97F
MAPLE LAKE     PTCLDY    26  24  89 CALM      29.97S
HUTCHINSON     CLOUDY    28  24  84 CALM      29.97S
$$
MNZ037-044-045-052-053-180100-
   East Central Minnesota

CITY           SKY/WX    TMP DP  RH WIND       PRES   REMARKS
PRINCETON      CLOUDY    25  21  86 CALM      29.96S
MORA           PTCLDY    19  18  93 CALM      29.97F
CAMBRIDGE      CLOUDY    25  19  80 CALM      29.97S
RUSH CITY      PTCLDY    24  21  91 CALM      29.97F
MOOSE LAKE     CLOUDY    23  19  86 CALM      29.93S
HINCKLEY       FAIR      21  21 100 CALM      29.96S
CLOQUET        CLOUDY    25  19  80 CALM      29.93R
MCGREGOR       CLOUDY    27  23  86 SW5       29.93F WCI  21
$$
MNZ071>073-080-081-089-090-097-098-180100-
   Southwest Minnesota

CITY           SKY/WX    TMP DP  RH WIND       PRES   REMARKS
MONTEVIDEO     CLOUDY    28  25  86 CALM      29.95S
GRANITE FALLS  CLOUDY    31  27  84 SE3       29.96F
CANBY          CLOUDY    33  29  85 E5        29.94S WCI  28
MARSHALL       CLOUDY    30  26  85 SE5       29.95S WCI  25
REDWOOD FALLS  CLOUDY    29  24  82 SE5       29.95F WCI  24
OLIVIA         PTCLDY    30  27  86 CALM      29.95F
PIPESTONE      CLOUDY    32  27  80 CALM      29.92S
WINDOM           N/A     25  14  63 W3        29.95R HAZE
WORTHINGTON    CLOUDY    23  22  96 CALM      29.96R FOG
JACKSON        CLOUDY    25  21  86 CALM      29.96R
SLAYTON        CLOUDY    30  27  90 SE5       29.94S WCI  25
$$
MNZ065>067-074>077-082>085-091>093-180100-
   South Central Minnesota

CITY           SKY/WX    TMP DP  RH WIND       PRES   REMARKS
MANKATO        CLOUDY    24  22  91 SE5       29.97F FOG     WCI  18
NEW ULM        CLOUDY    28  21  74 CALM      29.96F
ST JAMES       CLOUDY    25  21  86 CALM      29.97S
FAIRMONT       PTCLDY    27  22  81 E3        29.96F
GLENCOE        CLOUDY    28  24  85 CALM      29.97R
FARIBAULT      CLOUDY    27  25  93 CALM      29.97F FOG
OWATONNA       CLOUDY    27  27 100 CALM      29.95F FOG
WASECA         CLOUDY    28  27  93 CALM      29.98S FOG
ALBERT LEA     CLOUDY    28  27  93 CALM      29.95S FOG
$$
MNZ078>079-086>088-094>096-180100-
   Southeast Minnesota

CITY           SKY/WX    TMP DP  RH WIND       PRES   REMARKS
ROCHESTER      CLOUDY    28  28 100 CALM      29.96S FOG
6HR MIN TEMP:  27; 6HR MAX TEMP:  30; 6HR PCP: TRACE;

RED WING       CLOUDY    28  25  86 CALM      29.98S FOG
STANTON        CLOUDY    28  25  91 S3        29.96F FOG
DODGE CENTER   CLOUDY    27  27 100 CALM      29.95F FOG
WINONA         CLOUDY    32  28  86 CALM      30.00S
PRESTON        CLOUDY    28  27  96 CALM      29.96F FOG
$$
ABBREVIATIONS USED IN REMARKS
   TC - TEMPERATURES IN CELSIUS
  WCI - WIND CHILL INDEX
   HX - HEAT INDEX
  VSB - VISIBILITY
$$




USA.gov is the U.S. government's official web portal to all federal, state and local government web resources and services.